IPGAR LILV-LIMA

Flight info

Callsign IPGAR
Flight time N/A
Altitude 4000
Route LILV MENW1 MMN4 MMN3 LNW1 MCN1 LEN1 LEW1 MFN1 MFNW1 MANW1 LIMA
Aircraft P28U/L-SDE2E3FGHIJ1RWXY/LB1

Departure

Time 2026-04-23 18:37
Airport Valbrembo Airfield (LILV)

Arrival

Time N/A
Airport Torino-Aeritalia Airport (LIMA)
Time Latitude Longitude Altitude Speed Heading
2026-04-23 18:23 45.71899 9.59447 743 ft 0 kts 127°
2026-04-23 18:29 45.71891 9.59455 744 ft 4 kts 185°
2026-04-23 18:29 45.71897 9.59407 744 ft 6 kts 309°
2026-04-23 18:29 45.71903 9.59396 744 ft 0 kts 309°
2026-04-23 18:31 45.71908 9.59388 745 ft 8 kts 308°
2026-04-23 18:32 45.71821 9.59301 742 ft 28 kts 203°
2026-04-23 18:32 45.71662 9.59191 741 ft 14 kts 218°
2026-04-23 18:32 45.71651 9.59199 741 ft 0 kts 43°
2026-04-23 18:32 45.71671 9.59209 741 ft 0 kts 22°
2026-04-23 18:36 45.71672 9.59210 741 ft 2 kts 22°
2026-04-23 18:36 45.71861 9.59326 743 ft 58 kts 22°
2026-04-23 18:37 45.72358 9.59639 818 ft 87 kts 23°
2026-04-23 18:37 45.72879 9.59957 1141 ft 78 kts 22°
2026-04-23 18:37 45.73378 9.60246 1394 ft 80 kts 15°
2026-04-23 18:37 45.73825 9.59833 1553 ft 91 kts 294°
2026-04-23 18:38 45.73860 9.58901 1718 ft 106 kts 236°
2026-04-23 18:38 45.73421 9.58505 1787 ft 119 kts 201°
2026-04-23 18:38 45.72598 9.57604 2056 ft 113 kts 255°
2026-04-23 18:38 45.72574 9.56857 2037 ft 117 kts 273°
2026-04-23 18:39 45.72636 9.55705 2053 ft 117 kts 275°
2026-04-23 18:39 45.72705 9.54521 2048 ft 119 kts 275°
2026-04-23 18:39 45.72801 9.53340 2059 ft 123 kts 275°
2026-04-23 18:39 45.72848 9.52071 2046 ft 132 kts 272°
2026-04-23 18:40 45.72949 9.50750 2014 ft 136 kts 282°
2026-04-23 18:40 45.73209 9.49453 2072 ft 136 kts 288°
2026-04-23 18:40 45.73540 9.48135 2055 ft 140 kts 289°
2026-04-23 18:40 45.73843 9.46813 2076 ft 139 kts 282°
2026-04-23 18:41 45.73865 9.45435 2101 ft 139 kts 268°
2026-04-23 18:41 45.73797 9.44052 2071 ft 141 kts 265°
2026-04-23 18:41 45.73698 9.42659 2092 ft 142 kts 264°
2026-04-23 18:41 45.73583 9.41239 2048 ft 144 kts 264°
2026-04-23 18:42 45.73543 9.39803 2031 ft 145 kts 271°
2026-04-23 18:42 45.73697 9.38388 2031 ft 145 kts 285°
2026-04-23 18:42 45.74074 9.37048 2037 ft 145 kts 296°
2026-04-23 18:42 45.74623 9.35850 2062 ft 143 kts 305°
2026-04-23 18:43 45.75222 9.34709 2075 ft 143 kts 306°
2026-04-23 18:43 45.75827 9.33610 2071 ft 143 kts 308°
2026-04-23 18:43 45.76455 9.32502 2090 ft 142 kts 307°
2026-04-23 18:43 45.77059 9.31382 2092 ft 143 kts 306°
2026-04-23 18:44 45.77655 9.30229 2075 ft 144 kts 305°
2026-04-23 18:44 45.78233 9.29057 2078 ft 144 kts 301°
2026-04-23 18:44 45.78648 9.27752 2071 ft 143 kts 292°
2026-04-23 18:44 45.79032 9.26442 2087 ft 143 kts 292°
2026-04-23 18:45 45.79382 9.25113 2096 ft 142 kts 287°
2026-04-23 18:45 45.79589 9.23721 2079 ft 145 kts 276°
2026-04-23 18:45 45.79655 9.22280 2077 ft 144 kts 272°
2026-04-23 18:45 45.79643 9.20852 2099 ft 143 kts 268°
2026-04-23 18:46 45.79617 9.19408 2078 ft 146 kts 269°
2026-04-23 18:46 45.79610 9.17972 2085 ft 143 kts 271°
2026-04-23 18:46 45.79667 9.16552 2082 ft 143 kts 275°
2026-04-23 18:46 45.79780 9.15131 2097 ft 144 kts 277°
2026-04-23 18:47 45.79918 9.13712 2067 ft 145 kts 278°
2026-04-23 18:47 45.80079 9.12288 2072 ft 144 kts 279°
2026-04-23 18:47 45.80276 9.10878 2016 ft 146 kts 285°
2026-04-23 18:47 45.80621 9.09540 2031 ft 144 kts 293°
2026-04-23 18:48 45.81087 9.08258 2041 ft 146 kts 298°
2026-04-23 18:48 45.81593 9.06986 2034 ft 148 kts 300°
2026-04-23 18:48 45.82126 9.05723 2037 ft 148 kts 302°
2026-04-23 18:48 45.82672 9.04480 2054 ft 147 kts 301°
2026-04-23 18:49 45.83185 9.03207 2048 ft 148 kts 298°
2026-04-23 18:49 45.83564 9.01989 2054 ft 147 kts 291°
2026-04-23 18:49 45.83924 9.00613 2075 ft 147 kts 288°
2026-04-23 18:49 45.84229 8.99210 2069 ft 149 kts 285°
2026-04-23 18:50 45.84397 8.98334 2072 ft 149 kts 284°
2026-04-23 18:50 45.84427 8.96374 2065 ft 149 kts 258°
2026-04-23 18:50 45.84027 8.95016 2068 ft 148 kts 238°
2026-04-23 18:50 45.83452 8.93788 2056 ft 149 kts 235°
2026-04-23 18:51 45.82833 8.92602 2052 ft 148 kts 231°
2026-04-23 18:51 45.82185 8.91471 2065 ft 147 kts 229°
2026-04-23 18:51 45.81519 8.90387 2082 ft 144 kts 229°
2026-04-23 18:51 45.80852 8.89310 2065 ft 145 kts 229°
2026-04-23 18:52 45.80179 8.88238 2061 ft 145 kts 229°
2026-04-23 18:52 45.79637 8.87017 2016 ft 147 kts 246°
2026-04-23 18:52 45.79388 8.85621 1988 ft 145 kts 263°
2026-04-23 18:52 45.79264 8.84159 1947 ft 146 kts 263°
2026-04-23 18:53 45.79166 8.82742 1977 ft 144 kts 263°
2026-04-23 18:53 45.78997 8.81335 1974 ft 144 kts 257°
2026-04-23 18:53 45.78790 8.79935 1985 ft 142 kts 257°
2026-04-23 18:53 45.78567 8.78570 2051 ft 140 kts 257°
2026-04-23 18:54 45.78377 8.77200 2075 ft 140 kts 261°
2026-04-23 18:54 45.78215 8.75811 2067 ft 142 kts 259°
2026-04-23 18:54 45.78109 8.74862 2060 ft 143 kts 262°
2026-04-23 18:54 45.78142 8.73441 2088 ft 143 kts 279°
2026-04-23 18:55 45.78310 8.72041 2095 ft 143 kts 278°
2026-04-23 18:55 45.78464 8.70638 2113 ft 142 kts 277°
2026-04-23 18:55 45.78589 8.69225 2094 ft 144 kts 275°
2026-04-23 18:55 45.78674 8.67792 2096 ft 143 kts 274°
2026-04-23 18:56 45.78713 8.66853 2082 ft 144 kts 272°
2026-04-23 18:56 45.78656 8.64932 2067 ft 145 kts 257°
2026-04-23 18:56 45.78247 8.63617 2067 ft 145 kts 234°
2026-04-23 18:56 45.77639 8.62482 2104 ft 143 kts 232°
2026-04-23 18:57 45.76999 8.61371 2113 ft 145 kts 230°
2026-04-23 18:57 45.76331 8.60295 2145 ft 144 kts 228°
2026-04-23 18:57 45.75631 8.59260 2132 ft 145 kts 227°
2026-04-23 18:57 45.74932 8.58234 2153 ft 144 kts 226°
2026-04-23 18:58 45.74235 8.57207 2104 ft 147 kts 226°
2026-04-23 18:58 45.73525 8.56148 2087 ft 146 kts 227°
2026-04-23 18:58 45.72823 8.55095 2049 ft 147 kts 227°
2026-04-23 18:58 45.72104 8.54046 2028 ft 148 kts 225°
2026-04-23 18:59 45.71352 8.53045 2015 ft 148 kts 224°
2026-04-23 18:59 45.70743 8.52249 2020 ft 146 kts 223°
2026-04-23 18:59 45.69994 8.51261 2005 ft 146 kts 224°
2026-04-23 18:59 45.69265 8.50237 1992 ft 146 kts 226°
2026-04-23 19:00 45.68614 8.49120 1980 ft 146 kts 235°
2026-04-23 19:00 45.68031 8.47938 1967 ft 146 kts 236°
2026-04-23 19:00 45.67456 8.46745 1975 ft 146 kts 237°
2026-04-23 19:00 45.66888 8.45546 2000 ft 145 kts 237°
2026-04-23 19:01 45.66304 8.44372 2014 ft 145 kts 235°
2026-04-23 19:01 45.65694 8.43230 2064 ft 143 kts 233°
2026-04-23 19:01 45.65080 8.42111 2058 ft 142 kts 233°
2026-04-23 19:01 45.64469 8.41011 2089 ft 142 kts 231°
2026-04-23 19:02 45.64049 8.40298 2108 ft 141 kts 231°
2026-04-23 19:02 45.63413 8.38641 2085 ft 143 kts 247°
2026-04-23 19:02 45.63040 8.37335 2116 ft 140 kts 247°
2026-04-23 19:02 45.62773 8.36001 2138 ft 140 kts 261°
2026-04-23 19:03 45.62592 8.34630 2120 ft 142 kts 257°
2026-04-23 19:03 45.62399 8.33243 2117 ft 143 kts 257°
2026-04-23 19:03 45.62157 8.31860 2093 ft 144 kts 256°
2026-04-23 19:03 45.61890 8.30494 2109 ft 142 kts 253°
2026-04-23 19:04 45.61613 8.29129 2090 ft 144 kts 253°
2026-04-23 19:04 45.61347 8.27813 2110 ft 142 kts 255°
2026-04-23 19:04 45.61096 8.26447 2106 ft 142 kts 255°
2026-04-23 19:04 45.60828 8.25089 2102 ft 142 kts 255°
2026-04-23 19:05 45.60570 8.23724 2078 ft 143 kts 254°
2026-04-23 19:05 45.60303 8.22365 2080 ft 143 kts 254°
2026-04-23 19:05 45.60018 8.20992 2051 ft 145 kts 254°
2026-04-23 19:05 45.59691 8.19633 2055 ft 145 kts 250°
2026-04-23 19:06 45.59373 8.18266 2089 ft 144 kts 252°
2026-04-23 19:06 45.59089 8.16897 2123 ft 143 kts 256°
2026-04-23 19:06 45.58839 8.15530 2160 ft 143 kts 254°
2026-04-23 19:06 45.58553 8.14163 2157 ft 146 kts 253°
2026-04-23 19:07 45.58225 8.12792 2174 ft 146 kts 252°
2026-04-23 19:07 45.57879 8.11432 2194 ft 145 kts 249°
2026-04-23 19:07 45.57493 8.10109 2244 ft 143 kts 249°
2026-04-23 19:07 45.57114 8.08778 2222 ft 146 kts 250°
2026-04-23 19:08 45.56814 8.07393 2224 ft 146 kts 256°
2026-04-23 19:08 45.56526 8.06014 2203 ft 146 kts 250°
2026-04-23 19:08 45.55921 8.04826 2121 ft 151 kts 223°
2026-04-23 19:08 45.54977 8.04212 2109 ft 150 kts 194°
2026-04-23 19:09 45.53967 8.03884 2133 ft 148 kts 193°
2026-04-23 19:09 45.53028 8.03289 2120 ft 148 kts 211°
2026-04-23 19:09 45.52161 8.02584 2290 ft 139 kts 210°
2026-04-23 19:09 45.51343 8.01945 2515 ft 128 kts 210°
2026-04-23 19:10 45.50597 8.01354 2756 ft 119 kts 215°
2026-04-23 19:10 45.49979 8.00573 2866 ft 123 kts 230°
2026-04-23 19:10 45.49426 7.99646 3020 ft 123 kts 230°
2026-04-23 19:10 45.48890 7.98702 3201 ft 121 kts 231°
2026-04-23 19:11 45.48369 7.97762 3353 ft 123 kts 231°
2026-04-23 19:11 45.47830 7.96802 3491 ft 124 kts 231°
2026-04-23 19:11 45.47277 7.95883 3677 ft 123 kts 229°
2026-04-23 19:11 45.46687 7.94986 3794 ft 125 kts 226°
2026-04-23 19:12 45.46270 7.94384 3865 ft 128 kts 225°
2026-04-23 19:12 45.45477 7.93107 3946 ft 132 kts 233°
2026-04-23 19:12 45.45022 7.91949 3984 ft 135 kts 247°
2026-04-23 19:12 45.44747 7.90665 4046 ft 136 kts 253°
2026-04-23 19:13 45.44495 7.89356 4067 ft 139 kts 255°
2026-04-23 19:13 45.44276 7.88020 4106 ft 139 kts 257°
2026-04-23 19:13 45.44043 7.86674 4111 ft 141 kts 256°
2026-04-23 19:13 45.43810 7.85311 4117 ft 142 kts 256°
2026-04-23 19:14 45.43547 7.83950 4079 ft 145 kts 252°
2026-04-23 19:14 45.43136 7.82647 4043 ft 144 kts 249°
2026-04-23 19:14 45.42742 7.81342 4036 ft 144 kts 246°
2026-04-23 19:14 45.42360 7.80021 4033 ft 143 kts 248°
2026-04-23 19:15 45.42000 7.78734 4061 ft 141 kts 248°
2026-04-23 19:15 45.41644 7.77421 4064 ft 142 kts 250°
2026-04-23 19:15 45.41264 7.76081 3953 ft 149 kts 249°
2026-04-23 19:15 45.40859 7.74748 4030 ft 143 kts 248°
2026-04-23 19:16 45.40470 7.73447 4042 ft 144 kts 246°
2026-04-23 19:16 45.40050 7.72142 4044 ft 144 kts 246°
2026-04-23 19:16 45.39643 7.70848 4060 ft 143 kts 246°
2026-04-23 19:17 45.38879 7.68206 4031 ft 147 kts 248°
2026-04-23 19:17 45.38424 7.66902 3969 ft 150 kts 236°
2026-04-23 19:17 45.37612 7.65942 3913 ft 150 kts 214°
2026-04-23 19:17 45.36782 7.65189 4018 ft 143 kts 213°
2026-04-23 19:18 45.35874 7.64493 4021 ft 144 kts 210°
2026-04-23 19:18 45.35000 7.63814 4075 ft 142 kts 210°
2026-04-23 19:18 45.34135 7.63112 4063 ft 145 kts 210°
2026-04-23 19:18 45.33256 7.62397 4066 ft 146 kts 211°
2026-04-23 19:19 45.31504 7.60950 4075 ft 145 kts 211°
2026-04-23 19:19 45.30644 7.60207 4086 ft 144 kts 212°
2026-04-23 19:20 45.28951 7.58695 4069 ft 145 kts 213°
2026-04-23 19:20 45.28097 7.57922 4051 ft 145 kts 212°
2026-04-23 19:20 45.27259 7.57190 3945 ft 141 kts 212°
2026-04-23 19:20 45.26425 7.56482 3748 ft 138 kts 212°
2026-04-23 19:21 45.25616 7.55809 3625 ft 132 kts 212°
2026-04-23 19:21 45.24136 7.54466 3467 ft 122 kts 213°
2026-04-23 19:21 45.23420 7.53821 3371 ft 122 kts 214°
2026-04-23 19:22 45.22675 7.53241 3271 ft 122 kts 207°
2026-04-23 19:22 45.21911 7.52729 3181 ft 121 kts 206°
2026-04-23 19:22 45.20360 7.52068 3130 ft 114 kts 194°
2026-04-23 19:23 45.19846 7.51906 3069 ft 117 kts 194°
2026-04-23 19:23 45.18787 7.51563 2979 ft 116 kts 195°
2026-04-23 19:23 45.18013 7.51265 2905 ft 116 kts 196°
2026-04-23 19:24 45.16706 7.50712 2772 ft 117 kts 199°
2026-04-23 19:24 45.15897 7.50510 2702 ft 121 kts 179°
2026-04-23 19:24 45.14229 7.50813 2564 ft 121 kts 172°
2026-04-23 19:25 45.12537 7.51174 2442 ft 125 kts 173°
2026-04-23 19:25 45.10786 7.51466 2189 ft 131 kts 176°
2026-04-23 19:26 45.09016 7.51827 2070 ft 122 kts 175°
2026-04-23 19:26 45.08178 7.51965 2085 ft 120 kts 175°
2026-04-23 19:27 45.06499 7.52195 2078 ft 122 kts 176°
2026-04-23 19:27 45.03970 7.52955 2112 ft 129 kts 153°
2026-04-23 19:28 45.02762 7.54811 2114 ft 132 kts 123°
2026-04-23 19:28 45.01968 7.57161 2116 ft 131 kts 112°
2026-04-23 19:29 45.01695 7.58384 2122 ft 130 kts 106°
2026-04-23 19:29 45.01345 7.60835 2188 ft 124 kts 89°
2026-04-23 19:30 45.02369 7.62435 2200 ft 123 kts 17°
2026-04-23 19:30 45.03175 7.62822 2213 ft 124 kts 15°
2026-04-23 19:30 45.04861 7.63590 2164 ft 129 kts 14°
2026-04-23 19:31 45.05725 7.63947 2157 ft 127 kts
2026-04-23 19:31 45.06599 7.64073 2162 ft 126 kts
2026-04-23 19:31 45.07474 7.64158 2155 ft 124 kts
2026-04-23 19:31 45.08289 7.64242 2110 ft 109 kts
2026-04-23 19:32 45.09018 7.64303 2091 ft 100 kts 360°
2026-04-23 19:32 45.09688 7.64326 2080 ft 94 kts 357°
2026-04-23 19:32 45.10346 7.64348 2080 ft 95 kts 358°
2026-04-23 19:32 45.10985 7.64354 2076 ft 88 kts 357°
2026-04-23 19:33 45.11583 7.64381 2079 ft 84 kts 358°
2026-04-23 19:33 45.12161 7.64442 2070 ft 83 kts
2026-04-23 19:33 45.13337 7.64528 1955 ft 84 kts 357°
2026-04-23 19:34 45.13908 7.64569 1875 ft 81 kts 358°
2026-04-23 19:34 45.14459 7.64608 1811 ft 79 kts 356°
2026-04-23 19:34 45.15593 7.64664 1642 ft 83 kts 357°
2026-04-23 19:35 45.16164 7.64695 1561 ft 82 kts 356°
2026-04-23 19:35 45.16749 7.64753 1462 ft 87 kts 358°
2026-04-23 19:35 45.17351 7.64795 1324 ft 86 kts 355°
2026-04-23 19:35 45.17951 7.64821 1206 ft 87 kts 359°
2026-04-23 19:36 45.18554 7.64865 1082 ft 83 kts 355°
2026-04-23 19:36 45.19109 7.64900 973 ft 74 kts 359°
2026-04-23 19:36 45.19550 7.64931 959 ft 66 kts
2026-04-23 19:36 45.20103 7.64982 1077 ft 87 kts
2026-04-23 19:37 45.20748 7.64987 1250 ft 95 kts 358°
2026-04-23 19:37 45.21410 7.64984 1521 ft 95 kts 358°
2026-04-23 19:37 45.22091 7.65096 1761 ft 104 kts 22°
2026-04-23 19:37 45.22537 7.65916 1990 ft 114 kts 83°
2026-04-23 19:38 45.22634 7.67040 2157 ft 123 kts 79°
2026-04-23 19:38 45.22580 7.68258 2196 ft 130 kts 121°
2026-04-23 19:38 45.21761 7.68700 2167 ft 136 kts 184°
2026-04-23 19:38 45.20809 7.68655 2090 ft 137 kts 183°
2026-04-23 19:39 45.19869 7.68580 2037 ft 132 kts 184°
2026-04-23 19:39 45.19001 7.68509 2027 ft 118 kts 185°
2026-04-23 19:39 45.18217 7.68402 2023 ft 114 kts 187°
2026-04-23 19:39 45.17407 7.68338 2038 ft 117 kts 183°
2026-04-23 19:40 45.16644 7.68066 2015 ft 113 kts 222°
2026-04-23 19:40 45.16430 7.67069 1897 ft 101 kts 270°
2026-04-23 19:40 45.16446 7.66200 1753 ft 82 kts 271°
2026-04-23 19:40 45.16498 7.65416 1602 ft 78 kts 284°
2026-04-23 19:41 45.16867 7.64861 1432 ft 82 kts 331°
2026-04-23 19:41 45.17449 7.64806 1287 ft 86 kts 355°
2026-04-23 19:41 45.18044 7.64832 1174 ft 83 kts 357°
2026-04-23 19:41 45.18593 7.64873 1079 ft 76 kts 354°
2026-04-23 19:42 45.19095 7.64903 972 ft 69 kts 356°
2026-04-23 19:42 45.19518 7.64928 962 ft 65 kts
2026-04-23 19:42 45.20061 7.64973 1077 ft 84 kts
2026-04-23 19:42 45.20612 7.65096 1338 ft 78 kts
2026-04-23 19:43 45.21135 7.65177 1568 ft 77 kts 357°
2026-04-23 19:43 45.21700 7.65192 1758 ft 88 kts 13°
2026-04-23 19:43 45.22098 7.65937 1830 ft 114 kts 83°
2026-04-23 19:43 45.22033 7.67136 1853 ft 128 kts 101°
2026-04-23 19:44 45.21743 7.68311 1917 ft 128 kts 127°
2026-04-23 19:44 45.20963 7.68914 1887 ft 134 kts 177°
2026-04-23 19:44 45.20059 7.68892 1944 ft 125 kts 184°
2026-04-23 19:44 45.19203 7.68799 1923 ft 122 kts 186°
2026-04-23 19:45 45.18398 7.68729 1888 ft 107 kts 185°
2026-04-23 19:45 45.17705 7.68676 1837 ft 95 kts 186°
2026-04-23 19:45 45.17055 7.68669 1788 ft 95 kts 181°
2026-04-23 19:45 45.16385 7.68693 1853 ft 98 kts 186°
2026-04-23 19:46 45.15830 7.68205 1903 ft 98 kts 238°
2026-04-23 19:46 45.15695 7.67305 1909 ft 91 kts 269°
2026-04-23 19:46 45.15707 7.66460 1918 ft 82 kts 270°
2026-04-23 19:46 45.15807 7.65694 1817 ft 76 kts 294°
2026-04-23 19:47 45.16036 7.65324 1741 ft 75 kts 316°
2026-04-23 19:47 45.16666 7.64929 1590 ft 77 kts 341°
2026-04-23 19:47 45.17207 7.64846 1410 ft 80 kts 349°